When you browse on this site, cookies collect data to enhance your experience and personalize the content and advertising you see.
Visit our Privacy Policy to learn more. By continuing to use the site, you agree to this use of cookies and data.
  • In Czech Republic
  • List of Countries
  • For 7 days
  • Water Temperature
  • Weather Map
  • Weather Widgets
  • user-avatar
    Login

    Hourly Weather San Vicente de Chucuri

    Today, 18 January, Saturday

    Time Temperature Precipitation Wind Pressure Humidity
    00:00 +25°C° 0 mm 1 mps 698 mmHg 77%
    01:00 +25°C° 0 mm 1 mps 698 mmHg 81%
    02:00 +24°C° 0.1 mm 1 mps 697 mmHg 81%
    03:00 +24°C° 0.1 mm 1 mps 697 mmHg 81%
    04:00 +24°C° 0.1 mm 1 mps 697 mmHg 81%
    05:00 +24°C° 0 mm 1 mps 697 mmHg 80%
    06:00 +24°C° 0 mm 1 mps 697 mmHg 78%
    07:00 +24°C° 0 mm 1 mps 698 mmHg 76%
    08:00 +27°C° 0 mm 1 mps 698 mmHg 68%
    09:00 +29°C° 0 mm 1 mps 699 mmHg 60%
    10:00 +32°C° 0 mm 1 mps 700 mmHg 52%
    11:00 +33°C° 0 mm 1 mps 699 mmHg 50%
    12:00 +34°C° 0 mm 2 mps 699 mmHg 48%
    13:00 +35°C° 0 mm 2 mps 698 mmHg 46%
    14:00 +35°C° 0 mm 2 mps 697 mmHg 48%
    15:00 +35°C° 0 mm 2 mps 697 mmHg 49%
    16:00 +34°C° 0 mm 2 mps 696 mmHg 51%
    17:00 +31°C° 0.1 mm 1 mps 696 mmHg 58%
    18:00 +29°C° 0.1 mm 1 mps 696 mmHg 65%
    19:00 +28°C° 0.1 mm 1 mps 697 mmHg 72%
    20:00 +27°C° 0.5 mm 1 mps 697 mmHg 74%
    21:00 +26°C° 0.5 mm 1 mps 698 mmHg 77%
    22:00 +26°C° 0.5 mm 1 mps 698 mmHg 79%
    23:00 +25°C° 0.5 mm 1 mps 698 mmHg 81%

    Tomorrow, 19 January, Sunday

    Time Temperature Precipitation Wind Pressure Humidity
    00:00 +25°C° 0.5 mm 1 mps 698 mmHg 83%
    01:00 +24°C° 0.5 mm 1 mps 697 mmHg 85%
    02:00 +24°C° 0.1 mm 1 mps 697 mmHg 85%
    03:00 +24°C° 0.1 mm 1 mps 697 mmHg 85%
    04:00 +24°C° 0.1 mm 1 mps 697 mmHg 85%
    05:00 +24°C° 0 mm 1 mps 697 mmHg 85%
    06:00 +24°C° 0 mm 1 mps 697 mmHg 85%
    07:00 +24°C° 0 mm 1 mps 697 mmHg 84%
    08:00 +26°C° 0 mm 1 mps 698 mmHg 75%
    09:00 +29°C° 0 mm 1 mps 699 mmHg 66%
    10:00 +31°C° 0 mm 1 mps 700 mmHg 57%
    11:00 +32°C° 0 mm 1 mps 699 mmHg 54%
    12:00 +34°C° 0 mm 2 mps 698 mmHg 51%
    13:00 +35°C° 0 mm 2 mps 697 mmHg 48%
    14:00 +35°C° 0 mm 2 mps 697 mmHg 49%
    15:00 +34°C° 0 mm 2 mps 696 mmHg 51%
    16:00 +34°C° 0 mm 2 mps 695 mmHg 52%
    17:00 +31°C° 0.2 mm 1 mps 696 mmHg 60%
    18:00 +29°C° 0.2 mm 1 mps 696 mmHg 67%
    19:00 +27°C° 0.2 mm 1 mps 697 mmHg 74%
    20:00 +27°C° 0.8 mm 1 mps 697 mmHg 76%
    21:00 +26°C° 0.8 mm 1 mps 698 mmHg 79%
    22:00 +26°C° 0.8 mm 1 mps 698 mmHg 81%
    23:00 +25°C° 0.8 mm 1 mps 698 mmHg 82%

    Day after tomorrow, 20 January, Monday

    Time Temperature Precipitation Wind Pressure Humidity
    00:00 +25°C° 0.8 mm 1 mps 698 mmHg 84%
    01:00 +25°C° 0.8 mm 1 mps 698 mmHg 85%
    02:00 +25°C° 2.1 mm 1 mps 697 mmHg 87%
    03:00 +24°C° 2.1 mm 1 mps 697 mmHg 88%
    04:00 +22°C° 2.1 mm 0 mps 697 mmHg 90%
    05:00 +22°C° 0.9 mm 0 mps 697 mmHg 90%
    06:00 +22°C° 0.9 mm 0 mps 698 mmHg 91%
    07:00 +22°C° 0.9 mm 0 mps 698 mmHg 91%
    08:00 +23°C° 0.6 mm 0 mps 699 mmHg 88%
    09:00 +24°C° 0.6 mm 0 mps 699 mmHg 85%
    10:00 +27°C° 0.6 mm 1 mps 699 mmHg 81%
    11:00 +28°C° 0.3 mm 1 mps 699 mmHg 76%
    12:00 +29°C° 0.3 mm 1 mps 698 mmHg 71%
    13:00 +30°C° 0.3 mm 2 mps 697 mmHg 66%
    14:00 +30°C° 0.1 mm 1 mps 697 mmHg 67%
    15:00 +30°C° 0.1 mm 1 mps 696 mmHg 67%
    16:00 +29°C° 0.1 mm 1 mps 696 mmHg 68%
    17:00 +28°C° 0.4 mm 1 mps 696 mmHg 74%
    18:00 +27°C° 0.4 mm 1 mps 697 mmHg 79%
    19:00 +25°C° 0.4 mm 1 mps 697 mmHg 85%
    20:00 +25°C° 0.2 mm 1 mps 697 mmHg 84%
    21:00 +25°C° 0.2 mm 1 mps 698 mmHg 84%
    22:00 +24°C° 0.2 mm 1 mps 698 mmHg 84%
    23:00 +24°C° 1.1 mm 1 mps 698 mmHg 86%

    21 January, Tuesday

    Time Temperature Precipitation Wind Pressure Humidity
    00:00 +24°C° 1.1 mm 1 mps 698 mmHg 88%
    01:00 +23°C° 1.1 mm 1 mps 697 mmHg 90%
    02:00 +23°C° 1.1 mm 1 mps 697 mmHg 91%
    03:00 +21°C° 1.1 mm 0 mps 697 mmHg 92%
    04:00 +21°C° 1.1 mm 0 mps 697 mmHg 92%
    05:00 +21°C° 2.1 mm 0 mps 697 mmHg 93%
    06:00 +21°C° 2.1 mm 0 mps 698 mmHg 93%
    07:00 +21°C° 2.1 mm 0 mps 698 mmHg 93%
    08:00 +22°C° 1.4 mm 0 mps 698 mmHg 93%
    09:00 +22°C° 1.4 mm 0 mps 699 mmHg 92%
    10:00 +22°C° 1.4 mm 0 mps 699 mmHg 91%
    11:00 +23°C° 1.1 mm 0 mps 698 mmHg 90%
    12:00 +25°C° 1.1 mm 1 mps 698 mmHg 88%
    13:00 +26°C° 1.1 mm 1 mps 697 mmHg 87%
    14:00 +26°C° 0.7 mm 1 mps 697 mmHg 86%
    15:00 +26°C° 0.7 mm 1 mps 696 mmHg 85%
    16:00 +26°C° 0.7 mm 1 mps 696 mmHg 84%
    17:00 +25°C° 0.6 mm 1 mps 696 mmHg 86%
    18:00 +22°C° 0.6 mm 0 mps 697 mmHg 88%
    19:00 +22°C° 0.6 mm 0 mps 697 mmHg 90%
    20:00 +22°C° 0.6 mm 0 mps 697 mmHg 90%
    21:00 +21°C° 0.6 mm 0 mps 698 mmHg 90%
    22:00 +21°C° 0.6 mm 0 mps 698 mmHg 90%
    23:00 +21°C° 1 mm 0 mps 698 mmHg 91%

    22 January, Wednesday

    Time Temperature Precipitation Wind Pressure Humidity
    00:00 +21°C° 1 mm 0 mps 698 mmHg 91%
    01:00 +21°C° 1 mm 0 mps 698 mmHg 92%
    02:00 +23°C° 1.6 mm 1 mps 697 mmHg 93%
    03:00 +23°C° 1.6 mm 1 mps 697 mmHg 93%
    04:00 +23°C° 1.6 mm 1 mps 697 mmHg 94%
    05:00 +23°C° 0.6 mm 1 mps 697 mmHg 94%
    06:00 +23°C° 0.6 mm 1 mps 698 mmHg 94%
    07:00 +21°C° 0.6 mm 0 mps 698 mmHg 94%
    08:00 +24°C° 0.7 mm 1 mps 699 mmHg 91%
    09:00 +25°C° 0.7 mm 1 mps 699 mmHg 89%
    10:00 +26°C° 0.7 mm 1 mps 699 mmHg 86%
    11:00 +26°C° 1.5 mm 1 mps 699 mmHg 84%
    12:00 +27°C° 1.5 mm 1 mps 698 mmHg 83%
    13:00 +27°C° 1.5 mm 1 mps 698 mmHg 81%
    14:00 +27°C° 1.1 mm 1 mps 697 mmHg 81%
    15:00 +27°C° 1.1 mm 1 mps 697 mmHg 81%
    16:00 +27°C° 1.1 mm 1 mps 696 mmHg 81%
    17:00 +26°C° 0.7 mm 1 mps 697 mmHg 84%
    18:00 +25°C° 0.7 mm 1 mps 697 mmHg 87%
    19:00 +22°C° 0.7 mm 0 mps 697 mmHg 91%
    20:00 +21°C° 0.5 mm 0 mps 698 mmHg 91%
    21:00 +21°C° 0.5 mm 0 mps 698 mmHg 91%
    22:00 +21°C° 0.5 mm 0 mps 699 mmHg 91%
    23:00 +21°C° 1 mm 0 mps 698 mmHg 92%

    23 January, Thursday

    Time Temperature Precipitation Wind Pressure Humidity
    00:00 +21°C° 1 mm 0 mps 698 mmHg 93%
    01:00 +20°C° 1 mm 0 mps 698 mmHg 93%
    02:00 +20°C° 0.8 mm 0 mps 697 mmHg 93%
    03:00 +21°C° 0.8 mm 0 mps 697 mmHg 93%
    04:00 +21°C° 0.8 mm 0 mps 697 mmHg 93%
    05:00 +21°C° 0.4 mm 0 mps 698 mmHg 93%
    06:00 +21°C° 0.4 mm 0 mps 698 mmHg 93%
    07:00 +21°C° 0.4 mm 0 mps 699 mmHg 93%
    08:00 +22°C° 0.3 mm 0 mps 699 mmHg 89%
    09:00 +25°C° 0.3 mm 1 mps 699 mmHg 84%
    10:00 +26°C° 0.3 mm 1 mps 700 mmHg 80%
    11:00 +27°C° 0.2 mm 1 mps 699 mmHg 76%
    12:00 +28°C° 0.2 mm 1 mps 698 mmHg 71%
    13:00 +29°C° 0.2 mm 2 mps 698 mmHg 66%
    14:00 +29°C° 0.1 mm 1 mps 697 mmHg 67%
    15:00 +29°C° 0.1 mm 1 mps 697 mmHg 69%
    16:00 +28°C° 0.1 mm 1 mps 696 mmHg 70%
    17:00 +27°C° 0.1 mm 1 mps 696 mmHg 77%
    18:00 +25°C° 0.1 mm 1 mps 697 mmHg 83%
    19:00 +24°C° 0.1 mm 1 mps 697 mmHg 90%
    20:00 +24°C° 0.1 mm 1 mps 698 mmHg 90%
    21:00 +24°C° 0.1 mm 1 mps 698 mmHg 90%
    22:00 +21°C° 0.1 mm 0 mps 699 mmHg 90%
    23:00 +21°C° 0.3 mm 0 mps 698 mmHg 90%
    Show more